Location: Buckeye Ditch
(40.9104°N, 122.9517°W)
Time: 12:41:18
(UTC+00:00)

Tiros 1 despin weight - Pass Details

Date: 25 May 2025
Orbit: 563 x 601 km, 48.2° (Epoch: 22 June)

Event Time Altitude Azimuth Distance (km) Brightness Sun altitude
Rises 08:30:24 0° 231° (SW) 2,777 - -27.9°
Reaches altitude 10° 08:32:39 10° 229° (SW) 1,888 - -27.8°
Maximum altitude 08:36:57 67° 147° (SSE) 634 - -27.7°
Exits shadow 08:39:17 26° 70° (ENE) 1,159 ? -27.7°
Drops below altitude 10° 08:41:19 10° 65° (ENE) 1,921 ? -27.6°
Sets 08:43:38 0° 62° (ENE) 2,830 ? -27.5°
